Chanute, KS

1:04 PM CDT on May 27, 2017 (GMT -0500)
Chanute Martin Johnson

Weather History for KCNU - January, 2014

Change the Weather History Date:

Wednesday, January 8, 2014

  Actual Average Record
Temperature  
Mean Temperature 35 °F 32 °F  
Max Temperature 41 °F 42 °F 71 °F (1939)
Min Temperature 28 °F 23 °F -9 °F (1979)
Degree Days  
Heating Degree Days 30 33  
Month to date heating degree days 353 264  
Since 1 July heating degree days 2306 2057  
Cooling Degree Days 0 0  
Month to date cooling degree days 0 0  
Year to date cooling degree days 0 0  
Moisture  
Dew Point 21 °F    
Average Humidity 62    
Maximum Humidity 78    
Minimum Humidity 45    
Precipitation  
Precipitation T in 0.04 in 0.91 in (1937)
Month to date precipitation T 0.32  
Year to date precipitation T 0.32  
Sea Level Pressure  
Sea Level Pressure 30.26 in    
Wind  
Wind Speed 8 mph (East)    
Max Wind Speed 13 mph    
Max Gust Speed 15 mph    
Visibility 9 miles    
Events Snow    
T = Trace of Precipitation, MM = Missing Value Source: NWS Daily Summary

Daily Weather History Graph

Daily Weather History Graph

Search for Another Location

Airport or City:

Trip Planner

Search our weather history database for the weather conditions in past years. The results will help you decide how hot, cold, wet, or windy it might be!

Date:

Astronomy

Jan. 08, 2014 Rise Set
Actual Time 7:37 AM CST 5:20 PM CST
Civil Twilight 7:08 AM CST 5:49 PM CST
Nautical Twilight 6:35 AM CST 6:21 PM CST
Astronomical Twilight 6:04 AM CST 6:53 PM CST
Moon 12:09 PM CST (1/8) 12:47 AM CST (1/8)
Length of Visible Light 10h 40m
Length of Day
9h 43m
First Quarter, 56% of the Moon is Illuminated
Jan 8
First Quarter
Jan 15
Full
Jan 23
Last Quarter
Jan 30
New
Feb 6
First Quarter

Hourly Weather History & Observations

Time (CST) Temp. Windchill Dew Point Humidity Pressure Visibility Wind Dir Wind Speed Gust Speed Precip Events Conditions
12:52 AM 30.9 °F 22.8 °F 19.9 °F 64% 30.22 in 10.0 mi SSE 9.2 mph - N/A   Clear
1:52 AM 30.9 °F 22.2 °F 19.0 °F 61% 30.21 in 10.0 mi SSE 10.4 mph - N/A   Clear
2:52 AM 30.0 °F 21.7 °F 18.0 °F 61% 30.23 in 10.0 mi SSE 9.2 mph - N/A   Clear
3:52 AM 30.0 °F 21.7 °F 17.1 °F 59% 30.22 in 10.0 mi SSE 9.2 mph - N/A   Clear
4:52 AM 30.0 °F 21.1 °F 17.1 °F 59% 30.21 in 10.0 mi SSE 10.4 mph - N/A   Clear
5:52 AM 30.0 °F 21.1 °F 17.1 °F 59% 30.21 in 10.0 mi SE 10.4 mph - N/A   Clear
6:52 AM 28.9 °F 21.1 °F 17.1 °F 61% 30.22 in 10.0 mi SSE 8.1 mph - N/A   Clear
7:52 AM 28.9 °F 21.9 °F 18.0 °F 64% 30.23 in 10.0 mi SE 6.9 mph - N/A   Clear
8:52 AM 30.0 °F 25.2 °F 18.0 °F 61% 30.28 in 10.0 mi East 4.6 mph - N/A   Clear
9:52 AM 32.0 °F 26.4 °F 18.0 °F 56% 30.30 in 10.0 mi ESE 5.8 mph - N/A   Clear
10:52 AM 34.0 °F 28.8 °F 19.0 °F 54% 30.30 in 10.0 mi ESE 5.8 mph - N/A   Clear
11:52 AM 36.0 °F 32.1 °F 19.0 °F 50% 30.27 in 10.0 mi Variable 4.6 mph - N/A   Clear
12:52 PM 37.0 °F 34.5 °F 19.9 °F 50% 30.24 in 10.0 mi ESE 3.5 mph - N/A   Partly Cloudy
1:52 PM 41.0 °F 37.1 °F 21.9 °F 47% 30.23 in 10.0 mi ENE 5.8 mph - N/A   Clear
2:52 PM 37.9 °F 32.7 °F 24.1 °F 57% 30.25 in 10.0 mi East 6.9 mph - N/A   Overcast
3:52 PM 37.9 °F 33.5 °F 25.0 °F 60% 30.25 in 10.0 mi ENE 5.8 mph - N/A   Overcast
4:52 PM 37.0 °F 31.0 °F 24.1 °F 59% 30.26 in 10.0 mi East 8.1 mph - N/A   Overcast
5:10 PM 36.0 °F 29.0 °F 24.1 °F 62% 30.24 in 10.0 mi ENE 9.2 mph - N/A   Overcast
5:52 PM 35.1 °F 28.6 °F 23.0 °F 61% 30.27 in 10.0 mi ENE 8.1 mph - N/A   Overcast
6:52 PM 35.1 °F 27.9 °F 21.9 °F 59% 30.28 in 10.0 mi ENE 9.2 mph - N/A   Overcast
7:52 PM 33.1 °F 24.9 °F 23.0 °F 66% 30.30 in 10.0 mi ENE 10.4 mph - N/A   Overcast
8:26 PM 32.0 °F 25.6 °F 23.0 °F 69% 30.29 in 10.0 mi NE 6.9 mph - N/A   Overcast
8:47 PM 32.0 °F 25.6 °F 21.2 °F 64% 30.29 in 10.0 mi NE 6.9 mph - N/A   Overcast
8:52 PM 30.9 °F 23.5 °F 23.0 °F 72% 30.32 in 10.0 mi ENE 8.1 mph - N/A   Overcast
9:52 PM 30.0 °F 22.4 °F 21.9 °F 72% 30.32 in 8.0 mi ENE 8.1 mph - N/A   Overcast
10:15 PM 28.9 °F 21.1 °F 23.0 °F 78% 30.29 in 8.0 mi NE 8.1 mph - N/A   Overcast
10:48 PM 28.4 °F 19.7 °F 23.0 °F 80% 30.29 in 7.0 mi ENE 9.2 mph - N/A   Overcast
10:52 PM 28.0 °F 19.3 °F 23.0 °F 81% 30.31 in 6.0 mi ENE 9.2 mph - N/A   Haze
11:38 PM 28.0 °F 20.8 °F 21.9 °F 78% 30.28 in 6.0 mi NE 6.9 mph - 0.00 in Snow Light Snow
11:52 PM 28.0 °F 20.8 °F 21.9 °F 78% 30.30 in 6.0 mi NE 6.9 mph - 0.00 in   Haze